Location: Marsån
(66.4167°N, 22.2833°E)
Time: 10:06:01
(UTC+00:00)

Meteor 2-15 - Pass Details

Date: 24 February 2024
Orbit: 937 x 954 km, 82.5° (Epoch: 15 April)

Event Time Altitude Azimuth Distance (km) Brightness Sun altitude
Rises 16:48:08 0° 194° (SSW) 3,594 7.7 -9.1°
Reaches altitude 10° 16:50:36 10° 194° (SSW) 2,654 7.0 -9.3°
Maximum altitude 16:56:41 87° 107° (ESE) 953 4.4 -9.9°
Drops below altitude 10° 17:02:50 10° 19° (NNE) 2,678 6.6 -10.5°
Sets 17:05:20 0° 19° (NNE) 3,628 7.3 -10.8°
